STARLINK-33957 (63897 NORAD) Tracking and Keplerian Element Data

This shows tracking and keplerian element data for the satellite.

Feedback or suggestion? Click here.




ElementValue
Catalog63897
NameSTARLINK-33957
Epoch Orbit3560
Epoch Day354.10979592
Epoch Year2025
RAAN265.9453
Inclination42.9971
Eccentricity0.0006669
Argument of Perigee235.7781
Mean Anonmoly124.2439
Mean Motion15.27616278
Decay Rate0.00024779
L11 63897U 25095H 25354.10979592 .00024779 00000+0 90547-3 0 9991
L22 63897 42.9971 265.9453 0006669 235.7781 124.2439 15.27616278 35605



Live tracking and technical data element details for STARLINK-33957 (NORAD 63897). STARLINK-33957 can be tracked NOW for your location showing map with azimuth and elevation plus other details from your city location.







IsCatalogInMostPopularTable: catalog: 63897, numindb: 2
Update: records affected: 1



GetName: 63897 STARLINK-33957

Hit Count: updated at: Sun, 08 Feb 2026 18:03:17 GMT